TimeMDT,TemperatureF,Dew PointF,Humidity,Sea Level PressureIn,VisibilityMPH,Wind Direction,Wind SpeedMPH,Gust SpeedMPH,PrecipitationIn,Events,Conditions,WindDirDegrees,DateUTC
12:52 AM,37.9,-2.9,18,30.09,10.0,SSW,15.0,-,N/A,,Clear,210,2014-03-20 06:52:00
1:52 AM,30.9,-5.1,21,30.11,10.0,Calm,Calm,-,N/A,,Clear,0,2014-03-20 07:52:00
2:52 AM,21.0,-2.9,35,30.14,10.0,South,8.1,-,N/A,,Clear,170,2014-03-20 08:52:00
3:52 AM,32.0,-2.0,23,30.07,10.0,SW,18.4,-,N/A,,Clear,220,2014-03-20 09:52:00
4:52 AM,30.0,-2.9,24,30.06,10.0,SW,17.3,-,N/A,,Clear,230,2014-03-20 10:52:00
5:52 AM,26.1,-2.9,28,30.07,10.0,SSW,12.7,-,N/A,,Clear,200,2014-03-20 11:52:00
6:52 AM,21.0,-5.1,32,30.09,10.0,South,11.5,-,N/A,,Clear,170,2014-03-20 12:52:00
7:52 AM,19.9,-2.9,37,30.13,10.0,SSW,9.2,-,N/A,,Clear,200,2014-03-20 13:52:00
8:52 AM,34.0,-0.9,23,30.10,10.0,SSW,15.0,-,N/A,,Clear,210,2014-03-20 14:52:00
10:52 AM,46.9,-2.9,13,30.06,10.0,SSW,21.9,-,N/A,,Clear,200,2014-03-20 16:52:00
11:52 AM,53.1,-0.9,11,30.03,10.0,SSW,17.3,-,N/A,,Clear,200,2014-03-20 17:52:00
12:52 PM,55.9,-6.0,8,30.00,10.0,SSW,18.4,-,N/A,,Clear,200,2014-03-20 18:52:00
1:52 PM,59.0,-2.9,8,29.99,10.0,SSW,13.8,-,N/A,,Clear,200,2014-03-20 19:52:00
2:52 PM,61.0,-2.0,8,29.98,10.0,SSW,12.7,18.4,N/A,,Clear,200,2014-03-20 20:52:00
3:52 PM,62.1,-0.9,8,29.92,10.0,South,6.9,17.3,N/A,,Clear,190,2014-03-20 21:52:00
4:52 PM,62.1,1.0,9,29.91,10.0,SSW,9.2,-,N/A,,Clear,200,2014-03-20 22:52:00
5:52 PM,64.0,3.0,9,29.90,10.0,ENE,8.1,-,N/A,,Clear,60,2014-03-20 23:52:00
6:52 PM,60.1,3.9,11,29.92,10.0,NNE,8.1,-,N/A,,Clear,30,2014-03-21 00:52:00
7:52 PM,51.1,5.0,15,29.94,10.0,North,8.1,-,N/A,,Clear,350,2014-03-21 01:52:00
8:52 PM,46.0,5.0,19,29.93,10.0,WNW,9.2,-,N/A,,Clear,290,2014-03-21 02:52:00
9:52 PM,44.1,5.0,20,29.93,10.0,Variable,5.8,-,N/A,,Clear,0,2014-03-21 03:52:00
10:52 PM,41.0,5.0,23,29.93,10.0,South,4.6,-,N/A,,Clear,190,2014-03-21 04:52:00
11:52 PM,41.0,7.0,25,29.91,10.0,South,3.5,-,N/A,,Clear,170,2014-03-21 05:52:00